Location: Newark
(49.3000°N, 9.4667°E)
Time: 01:48:04
(UTC+00:00)

Vanguard 3 - All Passes

Search period start: 25 May 2019 00:00
Search period end: 04 June 2019 00:00
Orbit: 508 x 3263 km, 33.3° (Epoch: 24 May)

Date Brightness Start Highest point End Pass type
(mag) Time Alt. Az. Time Alt. Az. Time Alt. Az.
25 May - 01:54:24 10° WSW 02:03:22 20° SSW 02:14:44 10° S visible
25 May - 20:18:57 10° SSW 20:24:14 24° SSE 20:32:05 10° ESE visible
25 May - 22:28:13 10° WSW 22:35:43 32° S 22:47:29 10° SE visible
26 May - 00:39:38 10° WSW 00:48:25 25° SSW 01:00:38 10° SSE visible
26 May - 02:57:44 10° SW 03:01:23 11° SW 03:05:18 10° SSW daylight
26 May - 19:07:42 10° S 19:10:59 15° SSE 19:15:08 10° ESE daylight
26 May - 21:15:29 10° SW 21:21:37 29° S 21:31:09 10° ESE visible
26 May - 23:25:50 10° WSW 23:33:41 28° S 23:45:24 10° SE visible
27 May - 01:39:22 10° WSW 01:46:32 16° SSW 01:55:22 10° S visible
27 May - 20:03:16 10° SSW 20:07:59 22° SSE 20:14:48 10° ESE visible
27 May - 22:12:38 10° WSW 22:19:19 28° S 22:29:36 10° SE visible
28 May - 00:24:18 10° WSW 00:31:45 21° SSW 00:41:53 10° SSE visible
28 May - 18:51:59 10° S 18:54:46 14° SSE 18:58:12 10° ESE daylight
28 May - 20:59:55 10° SW 21:05:22 26° S 21:13:35 10° ESE visible
28 May - 23:10:24 10° WSW 23:17:13 24° SSW 23:27:06 10° SSE visible
29 May - 01:25:16 10° SW 01:29:49 12° SSW 01:35:05 10° S visible
29 May - 19:47:41 10° SSW 19:51:49 20° SSE 19:57:35 10° ESE visible
29 May - 21:57:11 10° SW 22:03:02 24° S 22:11:42 10° SE visible
30 May - 00:09:20 10° SW 00:15:14 17° SSW 00:22:49 10° S visible
30 May - 18:36:21 10° S 18:38:38 13° SSE 18:41:19 10° SE daylight
30 May - 20:44:28 10° SW 20:49:12 22° S 20:56:04 10° SE visible
30 May - 22:55:12 10° SW 23:00:52 19° SSW 23:08:40 10° SSE visible
31 May - 19:32:11 10° SSW 19:35:44 18° SSE 19:40:27 10° SE daylight
31 May - 21:41:54 10° SW 21:46:49 20° S 21:53:46 10° SE visible
31 May - 23:55:15 10° SW 23:58:48 12° SSW 00:02:58 10° S visible
01 Jun - 18:20:49 10° S 18:22:32 12° SSE 18:24:29 10° SE daylight
01 Jun - 20:29:06 10° SW 20:33:07 19° S 20:38:35 10° SE visible
01 Jun - 22:40:25 10° SW 22:44:37 15° SSW 22:49:57 10° SSE visible
02 Jun - 19:16:47 10° SSW 19:19:42 15° S 19:23:21 10° SE daylight
02 Jun - 21:26:51 10° SW 21:30:42 16° S 21:35:43 10° SSE visible
03 Jun - 18:05:30 10° S 18:06:30 11° SSE 18:07:34 10° SSE daylight
03 Jun - 20:13:57 10° SW 20:17:05 15° S 20:21:03 10° SSE visible
03 Jun - 22:27:01 10° SSW 22:28:26 10° SSW 22:29:58 10° S visible
